Date String (YYYY-MM-DD hh:mm:ss) UTC,Instrument flags,Ambient pressure (hPa),Sample flow (lpm),Bypass flow (lpm),Sample temperature (°C),Ambient temperature (°C),ASC tube jacket temperature (°C),LED temperature (°C),Box temperature (°C),Sample RH (%),Span deviation,Mass concentration (μg/m³),Mass concentration (μg/m³),Mass concentration (μg/m³)
DateTimeUTC,F1_M11,P_M11,Q1_M11,Q2_M11,T1_M11,T2_M11,T3_M11,T4_M11,T5_M11,U1_M11,ZSPAN_M11,X2_M11,X0_M11,X1_M11
2023-05-11 04:00:00,,0827.7,5.00,0.00,27.4,25.6,00.0,35.9,29.1,26.6,0000.0,0003.34,0007.72,0001.85
2023-05-11 04:01:00,,0827.7,5.01,0.00,27.4,25.7,00.0,35.9,29.1,26.8,0000.0,0003.33,0007.63,0001.81
2023-05-11 04:02:00,,0827.7,5.01,0.00,27.4,25.7,00.0,35.9,29.1,26.7,0000.0,0003.28,0007.63,0001.78
2023-05-11 04:03:00,,0827.7,4.99,0.00,27.4,25.8,00.0,35.9,29.2,26.7,0000.0,0003.27,0007.92,0001.76
2023-05-11 04:04:00,,0827.7,4.99,0.00,27.5,25.8,00.0,35.9,29.2,26.7,0000.0,0003.27,0007.95,0001.74
2023-05-11 04:05:00,,0827.7,5.00,0.00,27.5,25.9,00.0,35.9,29.3,26.6,0000.0,0003.26,0007.96,0001.73
2023-05-11 04:06:00,,0827.7,5.01,0.00,27.5,25.9,00.0,35.9,29.3,26.6,0000.0,0003.23,0007.86,0001.70
2023-05-11 04:07:00,,0827.7,5.01,0.00,27.5,26.0,00.0,35.9,29.3,26.5,0000.0,0003.23,0007.88,0001.69
2023-05-11 04:08:00,,0827.7,4.98,0.00,27.5,26.0,00.0,35.9,29.3,26.5,0000.0,0003.17,0007.30,0001.68
2023-05-11 04:09:00,,0827.7,5.00,0.00,27.5,26.0,00.0,35.9,29.3,26.5,0000.0,0003.13,0006.93,0001.68
2023-05-11 04:10:00,,0827.8,5.01,0.00,27.5,26.0,00.0,35.9,29.3,26.6,0000.0,0003.12,0006.91,0001.70
2023-05-11 04:11:00,,0827.8,5.01,0.00,27.6,26.0,00.0,35.9,29.3,26.6,0000.0,0003.15,0006.81,0001.73
2023-05-11 04:12:00,,0827.8,4.99,0.00,27.6,26.0,00.0,35.9,29.3,26.6,0000.0,0003.12,0006.68,0001.73
2023-05-11 04:13:00,,0827.8,5.00,0.00,27.6,26.0,00.0,35.9,29.3,26.7,0000.0,0003.14,0006.79,0001.73
2023-05-11 04:14:00,,0827.7,5.02,0.00,27.6,26.0,00.0,35.9,29.3,26.6,0000.0,0003.15,0006.13,0001.75
2023-05-11 04:15:00,,0827.8,5.01,0.00,27.6,26.0,00.0,35.9,29.3,26.6,0000.0,0003.17,0006.25,0001.74
2023-05-11 04:16:00,,0827.8,4.98,0.00,27.6,26.0,00.0,36.0,29.3,26.7,0000.0,0003.18,0006.28,0001.75
2023-05-11 04:17:00,,0827.7,5.00,0.00,27.6,26.0,00.0,36.0,29.3,26.7,0000.0,0003.17,0006.29,0001.75
2023-05-11 04:18:00,,0827.7,5.01,0.00,27.6,26.0,00.0,36.0,29.3,26.7,0000.0,0003.16,0006.22,0001.75
2023-05-11 04:19:00,,0827.8,5.00,0.00,27.6,26.0,00.0,36.0,29.3,26.7,0000.0,0003.21,0006.42,0001.79
2023-05-11 04:20:00,,0827.7,4.98,0.00,27.6,26.0,00.0,36.0,29.3,26.8,0000.0,0003.26,0006.65,0001.81
2023-05-11 04:21:00,,0827.7,5.00,0.00,27.6,26.0,00.0,36.0,29.3,26.8,0000.0,0003.26,0006.75,0001.81
2023-05-11 04:22:00,,0827.7,5.00,0.00,27.6,26.0,00.0,36.0,29.3,26.8,0000.0,0003.28,0006.93,0001.81
2023-05-11 04:23:00,,0827.7,5.00,0.00,27.6,26.0,00.0,36.0,29.3,26.8,0000.0,0003.32,0007.12,0001.84
2023-05-11 04:24:00,,0827.7,4.99,0.00,27.6,25.9,00.0,36.0,29.3,26.8,0000.0,0003.36,0007.31,0001.88
2023-05-11 04:25:00,,0827.7,5.00,0.00,27.6,25.9,00.0,36.0,29.3,26.8,0000.0,0003.41,0007.44,0001.90
2023-05-11 04:26:00,,0827.7,5.00,0.00,27.6,25.8,00.0,36.0,29.2,26.9,0000.0,0003.43,0007.39,0001.93
2023-05-11 04:27:00,,0827.7,5.01,0.00,27.6,25.8,00.0,36.0,29.2,26.9,0000.0,0003.44,0007.38,0001.97
2023-05-11 04:28:00,,0827.7,5.01,0.00,27.5,25.7,00.0,36.0,29.2,27.0,0000.0,0003.44,0007.40,0001.99
2023-05-11 04:29:00,,0827.7,5.00,0.00,27.5,25.7,00.0,36.0,29.2,27.0,0000.0,0003.51,0007.56,0002.02
2023-05-11 04:30:00,,0827.7,5.00,0.00,27.5,25.7,00.0,36.0,29.2,27.1,0000.0,0003.54,0007.57,0002.03
2023-05-11 04:31:00,,0827.6,5.00,0.00,27.5,25.7,00.0,36.0,29.2,27.2,0000.0,0003.54,0007.54,0002.06
2023-05-11 04:32:00,,0827.6,4.99,0.00,27.5,25.6,00.0,36.0,29.2,27.2,0000.0,0003.61,0007.78,0002.09
2023-05-11 04:33:00,,0827.5,5.00,0.00,27.5,25.6,00.0,36.0,29.1,27.2,0000.0,0003.64,0007.87,0002.10
2023-05-11 04:34:00,,0827.5,5.01,0.00,27.5,25.6,00.0,36.0,29.1,27.3,0000.0,0003.63,0007.84,0002.12
2023-05-11 04:35:00,,0827.6,5.02,0.00,27.5,25.5,00.0,35.9,29.1,27.3,0000.0,0003.64,0007.82,0002.14
2023-05-11 04:36:00,,0827.6,5.00,0.00,27.5,25.5,00.0,35.9,29.2,27.3,0000.0,0003.62,0007.73,0002.15
2023-05-11 04:37:00,,0827.8,4.98,0.00,27.5,25.5,00.0,35.9,29.2,27.3,0000.0,0003.60,0008.07,0002.16
2023-05-11 04:38:00,,0827.5,4.99,0.00,27.5,25.5,00.0,35.9,29.1,27.3,0000.0,0003.57,0008.44,0002.15
2023-05-11 04:39:00,,0827.5,5.01,0.00,27.5,25.6,00.0,35.9,29.1,27.4,0000.0,0003.59,0008.73,0002.17
2023-05-11 04:40:00,,0827.6,5.01,0.00,27.4,25.6,00.0,35.9,29.1,27.3,0000.0,0003.58,0008.72,0002.19
2023-05-11 04:41:00,,0827.6,5.00,0.00,27.4,25.6,00.0,35.9,29.1,27.4,0000.0,0003.55,0008.71,0002.18
2023-05-11 04:42:00,,0827.9,4.99,0.00,27.4,25.5,00.0,35.9,29.0,27.4,0000.0,0003.57,0008.85,0002.17
2023-05-11 04:43:00,,0827.6,5.01,0.00,27.4,25.5,00.0,35.9,29.0,27.5,0000.0,0003.51,0008.62,0002.16
2023-05-11 04:44:00,,0827.4,5.01,0.00,27.3,25.4,00.0,35.9,29.0,27.6,0000.0,0003.48,0008.49,0002.16
2023-05-11 04:45:00,,0827.4,4.99,0.00,27.3,25.3,00.0,35.9,28.9,27.6,0000.0,0003.50,0008.50,0002.17
2023-05-11 04:46:00,,0827.4,4.99,0.00,27.3,25.3,00.0,35.8,28.9,27.6,0000.0,0003.52,0008.62,0002.16
2023-05-11 04:47:00,,0827.4,5.00,0.00,27.3,25.2,00.0,35.8,28.8,27.6,0000.0,0003.53,0008.66,0002.16
2023-05-11 04:48:00,,0827.4,5.01,0.00,27.2,25.2,00.0,35.8,28.8,27.6,0000.0,0003.50,0008.30,0002.14
2023-05-11 04:49:00,,0827.4,5.00,0.00,27.2,25.1,00.0,35.8,28.8,27.7,0000.0,0003.50,0007.84,0002.14
2023-05-11 04:50:00,,0827.4,5.00,0.00,27.2,25.1,00.0,35.8,28.7,27.7,0000.0,0003.54,0007.66,0002.15
2023-05-11 04:51:00,,0827.4,4.99,0.00,27.1,25.0,00.0,35.8,28.7,27.8,0000.0,0003.50,0007.57,0002.13
2023-05-11 04:52:00,,0827.4,5.00,0.00,27.1,25.0,00.0,35.7,28.7,27.8,0000.0,0003.51,0007.64,0002.14
2023-05-11 04:53:00,,0827.4,5.01,0.00,27.1,24.9,00.0,35.7,28.7,27.8,0000.0,0003.49,0007.52,0002.12
2023-05-11 04:54:00,,0827.4,5.00,0.00,27.1,24.9,00.0,35.7,28.6,27.8,0000.0,0003.51,0007.96,0002.12
2023-05-11 04:55:00,,0827.4,5.01,0.00,27.0,24.9,00.0,35.7,28.6,27.9,0000.0,0003.54,0008.06,0002.12
2023-05-11 04:56:00,,0827.5,5.01,0.00,27.0,24.8,00.0,35.6,28.5,27.9,0000.0,0003.54,0008.09,0002.13
2023-05-11 04:57:00,,0827.9,5.00,0.00,27.0,24.8,00.0,35.6,28.5,28.1,0000.0,0003.51,0008.00,0002.11
2023-05-11 04:58:00,,0827.9,5.00,0.00,26.9,24.7,00.0,35.6,28.5,28.2,0000.0,0003.51,0007.98,0002.10
2023-05-11 04:59:00,,0827.8,4.99,0.00,26.9,24.7,00.0,35.6,28.5,28.3,0000.0,0003.54,0007.99,0002.13
